Total_Precipitation_Accumulation
3.21 3.17 3.09 3.12 3.04 3.02 3.18 3.28 3.20 3.50 3.67 3.27 2.85 2.67 2.69 2.78 2.67 2.67 2.53 2.41 2.40 2.64 3.13 3.45 3.39 3.21 2.97 2.74 2.59 2.49 2.29 2.07 1.97 1.83 1.76 1.86 1.89 1.85 1.82 1.80 1.76 1.68 1.61
3.28 3.45 3.34 3.25 3.05 2.97 3.06 3.18 3.30 3.73 3.69 3.52 3.11 2.83 2.71 2.67 2.51 2.44 2.55 2.75 2.61 2.53 2.73 3.16 3.56 3.58 3.49 3.26 2.99 2.83 2.63 2.46 2.26 1.92 1.73 1.82 1.91 1.94 1.94 1.91 1.81 1.68 1.58
3.15 3.20 3.06 2.94 2.91 2.98 3.17 3.18 3.36 3.55 3.25 3.27 3.10 2.86 2.63 2.41 2.26 2.25 2.44 2.64 2.53 2.52 2.74 3.02 3.34 3.55 3.75 3.89 3.77 3.57 3.15 2.79 2.51 2.20 1.93 1.83 1.80 1.78 1.76 1.78 1.80 1.70 1.55
2.83 3.13 2.93 2.80 3.09 3.08 3.19 3.48 3.61 3.53 3.47 3.50 3.23 2.84 2.58 2.46 2.11 2.01 2.00 2.19 2.44 2.22 2.58 2.92 3.05 3.23 3.69 4.23 4.45 4.39 3.97 3.50 3.07 2.71 2.40 2.16 2.05 1.87 1.64 1.53 1.61 1.60 1.46
2.77 3.11 3.13 3.23 3.26 3.36 3.39 3.20 3.61 3.66 3.55 3.58 3.12 2.91 2.58 2.29 2.10 1.92 1.84 1.83 2.07 2.29 2.43 2.55 2.72 2.92 3.47 4.36 4.76 4.80 4.67 4.24 3.59 3.20 3.02 2.83 2.65 2.31 1.94 1.70 1.62 1.55 1.46
2.86 3.30 3.17 3.16 3.22 3.42 3.52 3.48 3.62 3.63 3.35 3.32 2.96 2.90 2.50 2.01 1.93 1.88 1.72 1.75 1.87 1.93 2.27 2.61 2.90 2.65 3.00 3.67 4.17 4.73 5.06 4.78 4.10 3.66 3.54 3.43 3.33 2.96 2.37 2.02 1.88 1.76 1.66
2.90 3.38 3.17 3.43 3.36 3.37 3.42 3.46 3.60 3.50 3.19 3.38 3.46 3.04 2.44 2.00 1.97 1.75 1.70 1.75 1.82 1.82 2.20 2.68 2.95 2.88 2.60 2.71 3.11 3.69 4.46 4.76 4.50 4.10 3.89 3.73 3.75 3.49 2.88 2.44 2.24 2.01 1.90
3.12 3.17 3.40 3.33 3.37 3.51 3.46 3.44 3.60 3.39 3.02 3.30 3.66 3.72 3.01 2.58 2.10 1.59 1.71 1.83 2.01 2.10 2.18 2.34 2.56 2.84 2.84 3.02 2.76 2.71 3.47 4.35 4.78 4.66 4.29 3.82 3.62 3.52 3.21 2.96 2.65 2.41 2.27
3.34 3.34 3.33 3.24 3.26 3.07 3.16 3.25 3.28 3.31 3.24 3.18 3.49 3.83 3.38 2.88 2.48 1.87 1.74 1.78 2.05 2.38 2.38 2.40 2.45 2.75 2.94 3.38 3.48 3.10 2.92 3.40 4.22 4.98 4.94 4.27 3.63 3.37 3.34 3.27 3.15 2.86 2.62
3.17 2.98 2.93 3.10 3.12 2.92 2.98 2.64 2.81 3.02 3.01 2.87 3.15 3.20 3.22 3.22 3.12 2.43 1.97 1.80 1.96 2.18 2.33 2.27 2.32 2.59 2.91 3.25 3.54 3.35 2.86 2.68 3.11 4.13 4.78 4.68 4.18 3.66 3.37 3.39 3.65 3.60 3.19
2.94 2.60 2.63 2.84 2.80 2.71 2.62 2.53 2.73 2.58 2.50 2.57 2.80 2.99 3.07 3.16 3.04 2.86 2.41 2.35 2.30 2.15 2.10 2.16 2.39 2.55 2.79 3.12 3.50 3.24 3.02 2.80 2.65 2.87 3.49 3.99 4.15 3.98 3.79 4.01 4.48 4.71 4.46
2.66 2.36 2.24 2.42 2.53 2.57 2.53 2.50 2.59 2.47 2.48 2.62 2.62 2.69 2.94 2.94 2.90 3.06 2.63 2.47 2.48 2.22 2.15 2.25 2.28 2.50 2.62 2.86 2.96 3.06 2.97 2.77 2.60 2.56 2.74 3.07 3.36 3.54 3.65 3.98 4.54 4.98 5.21
2.31 2.24 2.24 2.34 2.36 2.42 2.31 2.35 2.39 2.43 2.61 2.68 2.59 2.53 2.65 2.69 2.81 3.07 3.02 2.70 2.58 2.37 2.42 2.36 2.23 2.34 2.31 2.47 2.58 2.63 2.43 2.31 2.19 2.17 2.24 2.39 2.47 2.68 2.94 3.39 3.95 4.53 4.91
2.26 2.34 2.31 2.17 2.12 2.22 2.10 2.37 2.29 2.35 2.58 2.64 2.40 2.66 2.67 2.66 2.95 3.19 3.30 3.39 3.05 2.72 2.64 2.58 2.46 2.28 2.30 2.33 2.37 2.32 2.11 2.04 1.79 1.77 1.85 1.96 2.05 2.14 2.35 2.64 3.16 3.56 3.72
2.28 2.41 2.35 2.24 2.14 2.23 2.34 2.62 2.56 2.50 2.71 2.70 2.70 2.90 2.82 2.76 2.89 3.02 3.23 3.49 3.58 3.18 2.95 2.92 2.73 2.40 2.29 2.32 2.35 2.10 2.14 2.07 1.83 1.72 1.64 1.60 1.69 1.78 1.83 1.99 2.27 2.46 2.62
2.10 2.28 2.40 2.33 2.24 2.28 2.47 2.67 2.65 2.80 2.97 2.99 3.05 3.13 3.07 2.88 2.95 2.99 3.04 3.30 3.64 3.56 3.18 2.80 2.58 2.29 2.17 2.02 2.27 2.07 2.10 2.12 1.92 1.78 1.61 1.51 1.54 1.57 1.58 1.62 1.72 1.86 2.03
2.05 2.12 2.30 2.36 2.31 2.35 2.47 2.55 2.51 2.82 2.96 2.99 2.96 2.95 2.92 3.06 3.04 2.92 3.02 3.20 3.48 3.57 3.20 2.63 2.50 2.45 2.44 2.34 2.35 2.22 2.10 2.05 1.86 1.75 1.60 1.54 1.53 1.54 1.57 1.56 1.58 1.57 1.60
2.09 2.09 2.20 2.24 2.14 2.16 2.37 2.41 2.45 2.73 2.89 2.78 2.78 2.78 2.57 2.64 2.72 2.59 2.73 2.81 2.95 3.21 3.14 2.80 2.71 2.67 2.61 2.49 2.49 2.46 2.23 2.01 1.75 1.74 1.57 1.51 1.54 1.54 1.54 1.53 1.55 1.55 1.56
1.92 1.96 1.99 2.02 2.07 2.22 2.32 2.31 2.33 2.34 2.37 2.44 2.66 2.78 2.57 2.55 2.47 2.47 2.50 2.48 2.56 2.67 2.92 2.84 2.69 2.73 2.65 2.65 2.57 2.35 2.19 2.10 1.74 1.69 1.66 1.57 1.53 1.48 1.46 1.45 1.46 1.55 1.70
1.75 1.82 1.90 2.00 2.07 2.14 2.19 2.26 2.33 2.26 2.22 2.27 2.42 2.49 2.46 2.43 2.36 2.46 2.38 2.37 2.45 2.61 2.75 2.79 2.69 2.79 2.77 2.72 2.74 2.52 2.51 2.37 2.14 1.87 1.83 1.73 1.72 1.69 1.60 1.48 1.43 1.47 1.63
1.82 1.89 1.97 1.97 1.97 1.96 1.89 1.95 2.04 2.06 2.18 2.13 2.04 2.05 2.07 2.12 2.11 2.15 2.00 2.18 2.43 2.58 2.63 2.65 2.64 2.82 2.96 2.97 2.80 2.73 2.77 2.73 2.50 2.17 2.04 1.88 1.83 1.74 1.75 1.70 1.58 1.49 1.50
1.92 1.95 1.90 1.95 1.95 1.68 1.86 1.91 1.92 2.01 2.08 2.09 2.00 1.89 1.79 1.79 1.73 1.73 1.69 1.77 2.07 2.31 2.45 2.59 2.57 2.69 2.91 3.09 3.21 3.17 3.02 2.90 2.81 2.62 2.50 2.40 2.23 2.16 2.04 1.88 1.82 1.69 1.56
2.04 2.00 1.92 1.92 1.95 2.01 2.07 1.91 1.78 1.75 1.84 1.90 1.87 1.84 1.61 1.53 1.71 1.68 1.73 1.70 1.72 1.88 2.04 2.27 2.37 2.33 2.52 2.83 3.10 3.01 3.16 3.21 3.11 3.06 3.05 2.92 2.61 2.39 2.14 1.96 1.83 1.56 1.43
2.24 2.21 2.15 2.06 2.04 2.03 2.04 1.84 1.85 1.76 1.77 1.76 1.78 1.81 1.80 1.72 1.79 1.91 1.88 1.80 1.68 1.64 1.73 1.81 1.93 2.06 2.30 2.64 2.92 2.88 2.96 3.06 3.07 3.03 3.06 3.01 2.69 2.49 2.22 2.07 2.02 1.70 1.44
2.36 2.29 2.23 2.24 2.18 2.20 2.28 2.08 2.11 1.95 1.93 1.93 1.96 1.96 1.94 1.84 1.99 1.95 1.84 1.81 1.76 1.75 1.81 1.89 1.84 1.94 2.18 2.33 2.53 2.65 2.62 2.68 2.61 2.53 2.66 2.83 2.78 2.65 2.44 2.20 2.04 1.87 1.52
2.38 2.40 2.39 2.36 2.36 2.40 2.65 2.46 2.30 2.12 2.11 2.10 2.20 2.18 2.22 2.07 2.07 2.00 1.83 1.84 1.86 1.88 1.99 1.94 1.89 1.84 1.86 2.09 2.35 2.38 2.56 2.75 2.62 2.40 2.15 2.31 2.47 2.67 2.75 2.47 2.21 2.07 1.95